Connellys Springs, NC

12:41 PM EDT on August 31, 2016 (GMT -0400)
Morganton-Lenoir

Weather History for KMRN - November, 2012

Change the Weather History Date:

Friday, November 23, 2012

  Actual Average (KHKY) Record (KHKY)
Temperature  
Mean Temperature 48 °F -  
Max Temperature 68 °F 56 °F 73 °F (1973)
Min Temperature 28 °F 35 °F 17 °F (1970)
Degree Days  
Heating Degree Days 17    
Moisture  
Dew Point 32 °F    
Average Humidity 65    
Maximum Humidity 100    
Minimum Humidity 23    
Precipitation  
Precipitation 0.00 in - - ()
Sea Level Pressure  
Sea Level Pressure 30.08 in    
Wind  
Wind Speed 3 mph (West)    
Max Wind Speed 18 mph    
Max Gust Speed 31 mph    
Visibility 9 miles    
Events      
Averages and records for this station are not official NWS values.
T = Trace of Precipitation, MM = Missing Value Source: NWS Daily Summary

Daily Weather History Graph

Daily Weather History Graph

Search for Another Location

Airport or City:

Trip Planner

Search our weather history database for the weather conditions in past years. The results will help you decide how hot, cold, wet, or windy it might be!

Date:

Astronomy

Nov. 23, 2012 Rise Set
Actual Time 7:10 AM EST 5:14 PM EST
Civil Twilight 6:43 AM EST 5:42 PM EST
Nautical Twilight 6:11 AM EST 6:13 PM EST
Astronomical Twilight 5:41 AM EST 6:44 PM EST
Moon 2:21 PM EST (11/23) 2:36 AM EST (11/23)
Length of Visible Light 10h 59m
Length of Day
10h 03m
Waxing Gibbous, 79% of the Moon is Illuminated
Nov 23
Waxing Gibbous
Nov 28
Full
Dec 6
Last Quarter
Dec 13
New
Dec 20
First Quarter

Hourly Weather History & Observations

Time (EST) Temp. Windchill Dew Point Humidity Pressure Visibility Wind Dir Wind Speed Gust Speed Precip Events Conditions
12:15 AM 32.0 °F - 32.0 °F 100% 30.21 in 10.0 mi Calm Calm - N/A   Clear
12:35 AM 32.0 °F - 30.2 °F 93% 30.21 in 10.0 mi Calm Calm - N/A   Clear
12:55 AM 32.0 °F - 32.0 °F 100% 30.21 in 7.0 mi Calm Calm - N/A   Clear
1:15 AM 30.2 °F - 30.2 °F 100% 30.20 in 7.0 mi Calm Calm - N/A   Clear
1:35 AM 30.2 °F - 30.2 °F 100% 30.20 in 7.0 mi Calm Calm - N/A   Clear
1:55 AM 30.2 °F - 30.2 °F 100% 30.20 in 7.0 mi Calm Calm - N/A   Clear
2:15 AM 30.2 °F - 28.4 °F 93% 30.20 in 10.0 mi Calm Calm - N/A   Clear
2:35 AM 30.2 °F - 30.2 °F 100% 30.19 in 7.0 mi Calm Calm - N/A   Clear
2:55 AM 30.2 °F - 30.2 °F 100% 30.19 in 10.0 mi Calm Calm - N/A   Clear
3:15 AM 32.0 °F - 32.0 °F 100% 30.20 in 10.0 mi Calm Calm - N/A   Clear
3:35 AM 30.2 °F - 30.2 °F 100% 30.19 in 7.0 mi Calm Calm - N/A   Clear
3:55 AM 30.2 °F - 30.2 °F 100% 30.18 in 10.0 mi Calm Calm - N/A   Clear
4:15 AM 30.2 °F - 28.4 °F 93% 30.17 in 10.0 mi Calm Calm - N/A   Clear
4:35 AM 30.2 °F 26.7 °F 30.2 °F 100% 30.17 in 10.0 mi NW 3.5 mph - N/A   Clear
4:55 AM 30.2 °F - 30.2 °F 100% 30.18 in 7.0 mi Calm Calm - N/A   Clear
5:15 AM 28.4 °F - 28.4 °F 100% 30.17 in 10.0 mi Calm Calm - N/A   Clear
5:35 AM 30.2 °F - 30.2 °F 100% 30.18 in 7.0 mi Calm Calm - N/A   Clear
5:55 AM 28.4 °F - 28.4 °F 100% 30.17 in 7.0 mi Calm Calm - N/A   Clear
6:15 AM 28.4 °F - 28.4 °F 100% 30.17 in 7.0 mi Calm Calm - N/A   Clear
6:35 AM 28.4 °F - 28.4 °F 100% 30.16 in 7.0 mi Calm Calm - N/A   Clear
6:55 AM 28.4 °F - 26.6 °F 93% 30.16 in 7.0 mi Calm Calm - N/A   Clear
7:15 AM 30.2 °F - 28.4 °F 93% 30.16 in 5.0 mi Calm Calm - N/A   Clear
7:35 AM 30.2 °F - 30.2 °F 100% 30.15 in 5.0 mi Calm Calm - N/A   Clear
7:55 AM 32.0 °F - 32.0 °F 100% 30.15 in 5.0 mi Calm Calm - N/A   Clear
8:15 AM 32.0 °F - 32.0 °F 100% 30.15 in 10.0 mi Calm Calm - N/A   Clear
8:35 AM 32.0 °F - 32.0 °F 100% 30.14 in 7.0 mi Calm Calm - N/A   Clear
8:55 AM 33.8 °F - 32.0 °F 93% 30.14 in 10.0 mi Calm Calm - N/A   Clear
9:15 AM 33.8 °F - 32.0 °F 93% 30.14 in 10.0 mi Calm Calm - N/A   Clear
9:35 AM 35.6 °F - 33.8 °F 93% 30.13 in 10.0 mi Calm Calm - N/A   Clear
9:55 AM 39.2 °F - 33.8 °F 81% 30.12 in 10.0 mi Calm Calm - N/A   Clear
10:15 AM 41.0 °F - 35.6 °F 81% 30.12 in 10.0 mi Calm Calm - N/A   Clear
10:35 AM 44.6 °F - 33.8 °F 66% 30.11 in 10.0 mi Calm Calm - N/A   Clear
10:55 AM 46.4 °F - 35.6 °F 66% 30.10 in 10.0 mi Calm Calm - N/A   Clear
11:15 AM 51.8 °F - 35.6 °F 54% 30.09 in 10.0 mi Calm Calm - N/A   Clear
11:35 AM 51.8 °F - 35.6 °F 54% 30.07 in 10.0 mi Calm Calm - N/A   Clear
11:55 AM 57.2 °F - 35.6 °F 44% 30.06 in 10.0 mi WSW 4.6 mph - N/A   Clear
12:15 PM 60.8 °F - 33.8 °F 36% 30.05 in 10.0 mi SW 5.8 mph - N/A   Clear
12:35 PM 62.6 °F - 33.8 °F 34% 30.04 in 10.0 mi WSW 5.8 mph - N/A   Clear
1:15 PM 64.4 °F - 32.0 °F 30% 30.02 in 10.0 mi SSW 5.8 mph - N/A   Clear
1:35 PM 66.2 °F - 33.8 °F 30% 30.00 in 10.0 mi South 6.9 mph - N/A   Clear
1:55 PM 68.0 °F - 32.0 °F 26% 29.98 in 10.0 mi South 8.1 mph - N/A   Clear
2:15 PM 68.0 °F - 32.0 °F 26% 29.98 in 10.0 mi SSW 9.2 mph - N/A   Clear
2:35 PM 68.0 °F - 28.4 °F 23% 29.97 in 10.0 mi South 6.9 mph - N/A   Clear
2:55 PM 68.0 °F - 30.2 °F 24% 29.96 in 10.0 mi SW 6.9 mph - N/A   Clear
3:15 PM 68.0 °F - 32.0 °F 26% 29.96 in 10.0 mi SW 6.9 mph - N/A   Clear
3:35 PM 66.2 °F - 32.0 °F 28% 29.96 in 10.0 mi SSW 8.1 mph - N/A   Scattered Clouds
3:55 PM 64.4 °F - 33.8 °F 32% 29.96 in 10.0 mi South 4.6 mph - N/A   Scattered Clouds
4:15 PM 64.4 °F - 33.8 °F 32% 29.96 in 10.0 mi SW 4.6 mph - N/A   Overcast
4:35 PM 64.4 °F - 33.8 °F 32% 29.96 in 10.0 mi WSW 3.5 mph - N/A   Overcast
4:55 PM 62.6 °F - 33.8 °F 34% 29.97 in 10.0 mi WNW 4.6 mph - N/A   Overcast
5:15 PM 64.4 °F - 42.8 °F 45% 29.97 in 10.0 mi West 9.2 mph 19.6 mph N/A   Overcast
5:35 PM 62.6 °F - 44.6 °F 52% 29.99 in 10.0 mi West 10.4 mph 20.7 mph N/A   Overcast
5:55 PM 60.8 °F - 42.8 °F 52% 29.99 in 10.0 mi WNW 11.5 mph - N/A   Overcast
6:15 PM 59.0 °F - 42.8 °F 55% 30.00 in 10.0 mi WNW 16.1 mph 25.3 mph N/A   Overcast
6:35 PM 59.0 °F - 41.0 °F 51% 30.00 in 10.0 mi NW 12.7 mph 23.0 mph N/A   Scattered Clouds
6:55 PM 59.0 °F - 41.0 °F 51% 30.01 in 10.0 mi WNW 15.0 mph 21.9 mph N/A   Mostly Cloudy
7:15 PM 57.2 °F - 37.4 °F 48% 30.00 in 10.0 mi WNW 16.1 mph 25.3 mph N/A   Scattered Clouds
7:35 PM 55.4 °F - 33.8 °F 44% 30.01 in 10.0 mi WNW 18.4 mph 31.1 mph N/A   Clear
7:55 PM 55.4 °F - 30.2 °F 38% 30.01 in 10.0 mi WNW 15.0 mph 26.5 mph N/A   Clear
8:15 PM 53.6 °F - 30.2 °F 41% 30.02 in 10.0 mi West 12.7 mph 21.9 mph N/A   Clear
8:35 PM 53.6 °F - 30.2 °F 41% 30.03 in 10.0 mi NE 4.6 mph - N/A   Clear
8:55 PM 51.8 °F - 30.2 °F 44% 30.03 in 10.0 mi NNW 10.4 mph 16.1 mph N/A   Clear
9:15 PM 51.8 °F - 30.2 °F 44% 30.04 in 10.0 mi WNW 9.2 mph - N/A   Clear
9:35 PM 51.8 °F - 28.4 °F 41% 30.04 in 10.0 mi NW 10.4 mph 16.1 mph N/A   Clear
9:55 PM 50.0 °F - 26.6 °F 40% 30.03 in 10.0 mi NW 12.7 mph 17.3 mph N/A   Clear
10:15 PM 50.0 °F - 26.6 °F 40% 30.03 in 10.0 mi NW 13.8 mph 19.6 mph N/A   Clear
10:35 PM 48.2 °F - 24.8 °F 40% 30.03 in 10.0 mi NW 10.4 mph - N/A   Clear
10:55 PM 46.4 °F 41.9 °F 24.8 °F 43% 30.03 in 10.0 mi NW 9.2 mph - N/A   Clear
11:15 PM 46.4 °F 42.4 °F 24.8 °F 43% 30.03 in 10.0 mi NNW 8.1 mph - N/A   Clear
11:35 PM 46.4 °F 41.1 °F 26.6 °F 46% 30.03 in 10.0 mi NW 11.5 mph 17.3 mph N/A   Clear
11:55 PM 46.4 °F 40.1 °F 26.6 °F 46% 30.03 in 10.0 mi NNW 15.0 mph 20.7 mph N/A   Clear